Regional Weather Roundup
Issued by NWS

Home | Current Version | Previous Version | Graphics & Text | Print | Product List | Glossary On
Versions: 1 2 3 4 5 6 7 8 9 10 11 12 13 14 15 16 17 18 19 20 21 22 23 24 25 26 27 28 29 30 31 32 33 34 35 36 37 38 39 40 41 42 43 44 45 46 47 48 49 50
000
ASUS43 KLSX 221507
RWRMO

WEATHER SUMMARY FOR MISSOURI
NATIONAL WEATHER SERVICE SPRINGFIELD MO
1000 AM CDT TUE JUL 22 2014

NOTE: "FAIR" INDICATES FEW OR NO CLOUDS BELOW 12,000 FEET WITH NO
       SIGNIFICANT WEATHER AND/OR OBSTRUCTIONS TO VISIBILITY.
       CURRENT SKY AND/OR WEATHER CONDITIONS ARE NOT AVAILABLE FOR
       CHILLICOTHE AND FARMINGTON.

MOZ001>031-035>038-043-044-053-054-221600-
...NORTHERN AND WESTERN MISSOURI...

CITY           SKY/WX    TMP DP  RH WIND       PRES   REMARKS
KANSAS CTY INT MOSUNNY   82  76  81 SW13      30.03S
KANSAS C DTWN  SUNNY     85  75  72 W10       30.02F HX  93
LEE`S SUMMIT   SUNNY     82  74  76 SW10      30.05S
ST JOSEPH      SUNNY     85  77  77 SW9       30.01S HX  95
CHILLICOTHE      N/A     83  75  77 SW8       30.01S HX  90
KIRKSVILLE     MOSUNNY   77  72  84 SW5       30.03R

$$
MOZ066>068-077>081-088>096-101>105-221600-
...SOUTHWEST MISSOURI...

CITY           SKY/WX    TMP DP  RH WIND       PRES   REMARKS
SPRINGFIELD    SUNNY     80  71  74 SW10      30.11F
JOPLIN         SUNNY     83  71  67 SW9       30.11F

$$
MOZ032>034-039>042-045>050-055>058-069>072-221600-
...CENTRAL MISSOURI...

CITY           SKY/WX    TMP DP  RH WIND       PRES   REMARKS
COLUMBIA       SUNNY     82  73  74 SW10      30.08R
JEFFERSON CITY SUNNY     81  70  69 SW3       30.06S
ROLLA          SUNNY     80  69  69 SW9       30.09S
SEDALIA        SUNNY     83  73  72 SW13      30.06F
OSAGE BEACH    SUNNY     82  70  65 SW7       30.08S

$$
MOZ051-052-059>065-221600-
...EAST CENTRAL MISSOURI...

CITY           SKY/WX    TMP DP  RH WIND       PRES   REMARKS
ST LOUIS INTL  MOSUNNY   83  67  58 SW7       30.09R
SPIRIT OF STL  SUNNY     81  67  62 W8        30.06F
ST CHARLES     SUNNY     81  68  64 SW9       30.07S

$$
MOZ072>076-082>087-097>100-106>115-221600-
...SOUTH CENTRAL AND SOUTHEAST MISSOURI...

CITY           SKY/WX    TMP DP  RH WIND       PRES   REMARKS
CAPE GIRARDEAU SUNNY     79  68  69 W3        30.09F
FARMINGTON     SUNNY     79  66  65 SW9       30.13S
POPLAR BLUFF   SUNNY     80  65  59 CALM      30.09S
WEST PLAINS    SUNNY     78  68  71 SW5       30.13F

$$



USA.gov is the U.S. government's official web portal to all federal, state and local government web resources and services.